Tracking 20232 objects as of 18-Jan-2020
HD Live streaming from Space Station
objects crossing your sky now

DIDO 2

Track DIDO 2 now!
10-day predictions


NORAD ID: 42000
Int'l Code: 2017-008BE
Perigee: 493.5 km
Apogee: 507.0 km
Inclination: 97.4 °
Period: 94.5 minutes
Semi major axis: 6871 km
RCS: Unknown
Launch date: February 15, 2017
Source: Israel (ISRA)
Launch site: SRIHARIKOTA (SRI)
aabbcc
Your satellite tracking list
Your tracking list is empty




NASA's NSSDC Master Catalog

Two Line Element Set (TLE):
1 42000U 17008BE  20017.67252081  .00000570  00000-0  26268-4 0  9993
2 42000  97.3763  85.2063 0009809 128.3920 231.8200 15.24228304161643
Source of the keplerian elements: AFSPC